Dalton, GA

2:18 AM EDT on March 26, 2017 (GMT -0400)
Dalton Municipal

Weather History for KDNN - February, 2014

Change the Weather History Date:

Saturday, February 1, 2014

  Actual Average Record
Temperature  
Mean Temperature 39 °F -  
Max Temperature 55 °F 52 °F 74 °F (1957)
Min Temperature 23 °F 29 °F 0 °F (1966)
Degree Days  
Heating Degree Days 26    
Moisture  
Dew Point 31 °F    
Average Humidity 77    
Maximum Humidity 100    
Minimum Humidity 40    
Precipitation  
Precipitation 0.00 in - - ()
Sea Level Pressure  
Sea Level Pressure 30.13 in    
Wind  
Wind Speed 1 mph (South)    
Max Wind Speed 6 mph    
Max Gust Speed -    
Visibility 10 miles    
Events      
Averages and records for this station are not official NWS values.
T = Trace of Precipitation, MM = Missing Value Source: NWS Daily Summary

Daily Weather History Graph

Daily Weather History Graph

Search for Another Location

Airport or City:

Trip Planner

Search our weather history database for the weather conditions in past years. The results will help you decide how hot, cold, wet, or windy it might be!

Date:

Astronomy

Feb. 01, 2014 Rise Set
Actual Time 7:37 AM EST 6:08 PM EST
Civil Twilight 7:11 AM EST 6:35 PM EST
Nautical Twilight 6:41 AM EST 7:05 PM EST
Astronomical Twilight 6:11 AM EST 7:35 PM EST
Moon 8:33 AM EST (2/1) 8:34 PM EST (2/1)
Length of Visible Light 11h 24m
Length of Day
10h 31m
Waxing Crescent, 5% of the Moon is Illuminated
Feb 1
Waxing Crescent
Feb 6
First Quarter
Feb 14
Full
Feb 22
Last Quarter
Mar 1
New

Hourly Weather History & Observations

Time (EST) Temp. Windchill Dew Point Humidity Pressure Visibility Wind Dir Wind Speed Gust Speed Precip Events Conditions
12:15 AM 28.4 °F - 21.2 °F 74% 30.14 in 10.0 mi Calm Calm - N/A   Clear
12:35 AM 28.4 °F - 21.2 °F 74% 30.14 in 10.0 mi Calm Calm - N/A   Clear
12:55 AM 26.6 °F - 23.0 °F 86% 30.14 in 10.0 mi Calm Calm - N/A   Clear
1:15 AM 26.6 °F - 23.0 °F 86% 30.14 in 10.0 mi Calm Calm - N/A   Clear
1:35 AM 26.6 °F - 23.0 °F 86% 30.14 in 10.0 mi Calm Calm - N/A   Clear
1:55 AM 26.6 °F - 23.0 °F 86% 30.15 in 10.0 mi Calm Calm - N/A   Clear
2:15 AM 26.6 °F - 23.0 °F 86% 30.14 in 10.0 mi Calm Calm - N/A   Clear
2:35 AM 26.6 °F - 23.0 °F 86% 30.15 in 10.0 mi Calm Calm - N/A   Clear
2:55 AM 26.6 °F - 23.0 °F 86% 30.14 in 10.0 mi Calm Calm - N/A   Clear
3:15 AM 26.6 °F - 23.0 °F 86% 30.14 in 10.0 mi Calm Calm - N/A   Clear
3:35 AM 24.8 °F - 23.0 °F 93% 30.14 in 10.0 mi Calm Calm - N/A   Clear
3:55 AM 26.6 °F - 23.0 °F 86% 30.14 in 10.0 mi Calm Calm - N/A   Clear
4:15 AM 24.8 °F - 23.0 °F 93% 30.14 in 10.0 mi Calm Calm - N/A   Clear
4:35 AM 26.6 °F - 23.0 °F 86% 30.14 in 10.0 mi Calm Calm - N/A   Clear
4:55 AM 26.6 °F - 23.0 °F 86% 30.14 in 10.0 mi Calm Calm - N/A   Clear
5:15 AM 24.8 °F - 23.0 °F 93% 30.15 in 10.0 mi Calm Calm - N/A   Clear
5:35 AM 26.6 °F - 23.0 °F 86% 30.14 in 10.0 mi Calm Calm - N/A   Clear
5:55 AM 24.8 °F - 23.0 °F 93% 30.14 in 10.0 mi Calm Calm - N/A   Clear
6:15 AM 24.8 °F - 23.0 °F 93% 30.15 in 10.0 mi Calm Calm - N/A   Clear
6:35 AM 24.8 °F - 23.0 °F 93% 30.15 in 10.0 mi Calm Calm - N/A   Clear
6:55 AM 24.8 °F - 23.0 °F 93% 30.15 in 10.0 mi Calm Calm - N/A   Clear
7:15 AM 23.0 °F - 23.0 °F 100% 30.15 in 10.0 mi Calm Calm - N/A   Clear
7:35 AM 23.0 °F 18.4 °F 21.2 °F 93% 30.15 in 10.0 mi NNW 3.5 mph - N/A   Clear
7:55 AM 23.0 °F - 21.2 °F 93% 30.16 in 10.0 mi Calm Calm - N/A   Clear
8:15 AM 26.6 °F - 23.0 °F 86% 30.17 in 10.0 mi Calm Calm - N/A   Clear
8:35 AM 28.4 °F - 24.8 °F 86% 30.17 in 10.0 mi Calm Calm - N/A   Clear
8:55 AM 30.2 °F - 24.8 °F 80% 30.17 in 10.0 mi Calm Calm - N/A   Clear
9:15 AM 32.0 °F - 26.6 °F 80% 30.17 in 10.0 mi Calm Calm - N/A   Clear
9:35 AM 33.8 °F - 24.8 °F 70% 30.17 in 10.0 mi Calm Calm - N/A   Mostly Cloudy
9:55 AM 33.8 °F - 23.0 °F 65% 30.18 in 10.0 mi Calm Calm - N/A   Overcast
10:15 AM 35.6 °F - 23.0 °F 60% 30.18 in 10.0 mi Calm Calm - N/A   Overcast
10:35 AM 37.4 °F - 26.6 °F 65% 30.17 in 10.0 mi Calm Calm - N/A   Overcast
10:55 AM 41.0 °F - 24.8 °F 53% 30.17 in 10.0 mi Calm Calm - N/A   Overcast
11:15 AM 42.8 °F 41.1 °F 24.8 °F 49% 30.17 in 10.0 mi SSE 3.5 mph - N/A   Overcast
11:35 AM 44.6 °F 43.1 °F 23.0 °F 43% 30.16 in 10.0 mi South 3.5 mph - N/A   Overcast
11:55 AM 44.6 °F 41.4 °F 23.0 °F 43% 30.14 in 10.0 mi South 5.8 mph - N/A   Overcast
12:15 PM 46.4 °F 45.2 °F 23.0 °F 40% 30.13 in 10.0 mi SSW 3.5 mph - N/A   Overcast
12:35 PM 48.2 °F - 24.8 °F 40% 30.12 in 10.0 mi South 4.6 mph - N/A   Overcast
12:55 PM 48.2 °F - 26.6 °F 43% 30.12 in 10.0 mi SSW 3.5 mph - N/A   Overcast
1:15 PM 50.0 °F - 26.6 °F 40% 30.11 in 10.0 mi Calm Calm - N/A   Overcast
1:35 PM 50.0 °F - 28.4 °F 43% 30.11 in 10.0 mi SSW 3.5 mph - N/A   Overcast
1:55 PM 51.8 °F - 32.0 °F 47% 30.10 in 10.0 mi South 3.5 mph - N/A   Overcast
2:15 PM 51.8 °F - 32.0 °F 47% 30.09 in 10.0 mi South 3.5 mph - N/A   Overcast
2:35 PM 53.6 °F - 33.8 °F 47% 30.09 in 10.0 mi SSW 5.8 mph - N/A   Overcast
2:55 PM 53.6 °F - 35.6 °F 51% 30.09 in 10.0 mi Calm Calm - N/A   Overcast
3:15 PM 53.6 °F - 41.0 °F 62% 30.09 in 10.0 mi South 4.6 mph - N/A   Overcast
3:35 PM 53.6 °F - 41.0 °F 62% 30.08 in 10.0 mi SW 5.8 mph - N/A   Overcast
3:55 PM 53.6 °F - 41.0 °F 62% 30.08 in 10.0 mi South 3.5 mph - N/A   Overcast
4:15 PM 53.6 °F - 41.0 °F 62% 30.08 in 10.0 mi Calm Calm - N/A   Overcast
4:35 PM 55.4 °F - 42.8 °F 63% 30.08 in 10.0 mi SW 3.5 mph - N/A   Scattered Clouds
4:55 PM 55.4 °F - 42.8 °F 63% 30.08 in 10.0 mi Calm Calm - N/A   Clear
5:15 PM 53.6 °F - 42.8 °F 67% 30.08 in 10.0 mi Calm Calm - N/A   Clear
5:35 PM 53.6 °F - 42.8 °F 67% 30.08 in 10.0 mi Calm Calm - N/A   Clear
5:55 PM 51.8 °F - 42.8 °F 71% 30.08 in 10.0 mi Calm Calm - N/A   Clear
6:15 PM 50.0 °F - 41.0 °F 71% 30.08 in 10.0 mi Calm Calm - N/A   Clear
6:35 PM 51.8 °F - 44.6 °F 76% 30.09 in 10.0 mi SSE 3.5 mph - N/A   Clear
6:55 PM 50.0 °F - 44.6 °F 82% 30.10 in 10.0 mi South 3.5 mph - N/A   Scattered Clouds
7:15 PM 48.2 °F - 44.6 °F 87% 30.10 in 10.0 mi South 3.5 mph - N/A   Scattered Clouds
7:35 PM 48.2 °F - 44.6 °F 87% 30.11 in 10.0 mi Calm Calm - N/A   Scattered Clouds
7:55 PM 46.4 °F 45.2 °F 44.6 °F 93% 30.11 in 10.0 mi SSE 3.5 mph - N/A   Scattered Clouds
8:15 PM 46.4 °F 45.2 °F 44.6 °F 93% 30.11 in 10.0 mi SSE 3.5 mph - N/A   Scattered Clouds
8:35 PM 46.4 °F - 44.6 °F 93% 30.11 in 10.0 mi Calm Calm - N/A   Clear
8:55 PM 46.4 °F 45.2 °F 44.6 °F 93% 30.10 in 10.0 mi SSE 3.5 mph - N/A   Clear
9:15 PM 46.4 °F 45.2 °F 44.6 °F 93% 30.10 in 10.0 mi SSE 3.5 mph - N/A   Clear
9:35 PM 46.4 °F 45.2 °F 44.6 °F 93% 30.11 in 10.0 mi SSE 3.5 mph - N/A   Clear
9:55 PM 44.6 °F 43.1 °F 44.6 °F 100% 30.11 in 10.0 mi SSE 3.5 mph - N/A   Clear
10:15 PM 42.8 °F - 42.8 °F 100% 30.11 in 10.0 mi Calm Calm - N/A   Clear
10:35 PM 42.8 °F - 42.8 °F 100% 30.11 in 10.0 mi Calm Calm - N/A   Clear
10:55 PM 41.0 °F 39.0 °F 41.0 °F 100% 30.10 in 10.0 mi South 3.5 mph - N/A   Clear
11:15 PM 41.0 °F 39.0 °F 41.0 °F 100% 30.10 in 10.0 mi South 3.5 mph - N/A   Clear
11:35 PM 41.0 °F 39.0 °F 41.0 °F 100% 30.10 in 10.0 mi South 3.5 mph - N/A   Clear
11:55 PM 41.0 °F 39.0 °F 41.0 °F 100% 30.10 in 10.0 mi SSW 3.5 mph - N/A   Clear